Regional Weather Roundup
Issued by NWS Goodland, KS

Home | Current Version | Previous Version | Graphics & Text | Print | Product List | Glossary On
Versions: 1 2 3 4 5 6 7 8 9 10 11 12 13 14 15 16 17 18 19 20 21 22 23 24 25 26 27 28 29 30 31 32 33 34 35 36 37 38 39 40 41 42 43 44 45 46 47 48 49 50
000
ASUS43 KGLD 190408
RWRGLD

GOODLAND FORECAST AREA HOURLY WEATHER ROUNDUP
NATIONAL WEATHER SERVICE GOODLAND KS
1000 PM MDT SAT APR 18 2015

...OFFICIAL OBSERVATIONS...

CITY           SKY/WX    TMP DP  RH WIND       PRES   REMARKS
GOODLAND KS    CLOUDY    48  43  82 N15       29.80F
HILL CITY KS   MOCLDY    51  46  83 SE5       29.79F
IMPERIAL NEB   CLOUDY    49  43  80 NE16      29.85R
MCCOOK NEB     CLOUDY    53  47  79 SE7       29.81S
AKRON CO       CLOUDY    41  39  93 N14       29.88R
BURLINGTON CO  CLOUDY    46  41  82 NW10      29.82
LIMON CO       LGT RAIN  40  37  89 N17       29.88S
$$

...UNOFFICIAL OBSERVATIONS...

CITY           SKY/WX    TMP DP  RH WIND       PRES   REMARKS
COLBY KS       LGT RAIN  54  48  82 NW7       29.80F
GOVE KS          N/A     54  32  43 MISG        N/A
LENORA KS        N/A     51  32  48 MISG        N/A
NORTON KS      CLOUDY    54  46  76 CALM      29.80F
SHARON SPRINGS   N/A     44  41  89 MISG        N/A
TRIBUNE KS     CLOUDY    46  46 100 W8        29.83S
KIT CARSON CO    N/A     45  41  85 MISG        N/A
YUMA CO          N/A     45  39  81 N12         N/A
$$



USA.gov is the U.S. government's official web portal to all federal, state and local government web resources and services.